QPF
0.00 0.00 0.00 0.00 0.00 0.00 0.00 0.00 0.00 0.00 0.00 0.00 0.00 0.00 0.00 0.00 0.00 0.00 0.00 0.00 0.00 0.00 0.01 0.01 0.01 0.01 0.01 0.01 0.01 0.01 0.01 0.00 0.00 0.00 0.00 0.00 0.00 0.00 0.00 0.00 0.00 0.00 0.00
0.00 0.00 0.00 0.00 0.00 0.00 0.00 0.00 0.00 0.00 0.00 0.00 0.00 0.00 0.00 0.00 0.00 0.00 0.00 0.00 0.00 0.00 0.00 0.00 0.00 0.00 0.00 0.00 0.00 0.00 0.00 0.00 0.00 0.00 0.00 0.00 0.00 0.00 0.00 0.00 0.00 0.00 0.00
0.00 0.00 0.00 0.00 0.00 0.00 0.00 0.00 0.00 0.00 0.00 0.00 0.00 0.00 0.00 0.00 0.00 0.00 0.00 0.00 0.00 0.00 0.00 0.00 0.00 0.00 0.00 0.00 0.00 0.00 0.00 0.00 0.00 0.00 0.00 0.00 0.00 0.00 0.00 0.00 0.00 0.00 0.00
0.00 0.00 0.00 0.00 0.00 0.00 0.00 0.00 0.00 0.00 0.00 0.00 0.00 0.00 0.00 0.00 0.00 0.00 0.00 0.00 0.00 0.00 0.00 0.00 0.00 0.00 0.00 0.00 0.00 0.00 0.00 0.00 0.00 0.00 0.00 0.00 0.00 0.00 0.00 0.00 0.00 0.00 0.00
0.00 0.00 0.00 0.00 0.00 0.00 0.00 0.00 0.00 0.00 0.00 0.00 0.00 0.00 0.00 0.00 0.00 0.00 0.00 0.00 0.00 0.00 0.00 0.00 0.00 0.00 0.00 0.00 0.00 0.00 0.00 0.00 0.00 0.00 0.00 0.00 0.00 0.00 0.00 0.00 0.00 0.00 0.00
0.00 0.00 0.00 0.00 0.00 0.00 0.00 0.00 0.00 0.00 0.00 0.00 0.00 0.00 0.00 0.00 0.00 0.00 0.00 0.00 0.00 0.00 0.00 0.00 0.00 0.00 0.00 0.00 0.00 0.00 0.00 0.00 0.00 0.00 0.00 0.00 0.00 0.00 0.00 0.00 0.00 0.00 0.00
0.00 0.00 0.00 0.00 0.00 0.00 0.00 0.00 0.00 0.00 0.00 0.00 0.00 0.00 0.00 0.00 0.00 0.00 0.00 0.00 0.00 0.00 0.00 0.00 0.00 0.00 0.00 0.00 0.00 0.00 0.00 0.00 0.00 0.00 0.00 0.00 0.00 0.00 0.00 0.00 0.00 0.00 0.00
0.00 0.00 0.00 0.00 0.00 0.00 0.00 0.00 0.00 0.00 0.00 0.00 0.00 0.00 0.00 0.00 0.00 0.00 0.00 0.00 0.00 0.00 0.00 0.00 0.00 0.00 0.00 0.00 0.00 0.00 0.00 0.00 0.00 0.00 0.00 0.00 0.00 0.00 0.00 0.00 0.00 0.00 0.00
0.00 0.00 0.00 0.00 0.00 0.00 0.00 0.00 0.00 0.00 0.00 0.00 0.00 0.00 0.00 0.00 0.00 0.00 0.00 0.00 0.00 0.00 0.00 0.00 0.00 0.00 0.00 0.00 0.00 0.00 0.00 0.00 0.00 0.00 0.00 0.00 0.00 0.00 0.00 0.00 0.00 0.00 0.00
0.00 0.00 0.00 0.00 0.00 0.00 0.00 0.00 0.00 0.00 0.00 0.00 0.00 0.00 0.00 0.00 0.00 0.00 0.00 0.00 0.00 0.00 0.00 0.00 0.00 0.00 0.00 0.00 0.00 0.00 0.00 0.00 0.00 0.00 0.00 0.00 0.00 0.00 0.00 0.00 0.00 0.00 0.00
0.00 0.00 0.00 0.00 0.00 0.00 0.00 0.00 0.00 0.00 0.00 0.00 0.00 0.00 0.00 0.00 0.00 0.00 0.00 0.00 0.00 0.00 0.00 0.00 0.00 0.00 0.00 0.00 0.00 0.00 0.00 0.00 0.00 0.00 0.00 0.00 0.00 0.00 0.00 0.00 0.00 0.00 0.00
0.00 0.00 0.00 0.00 0.00 0.00 0.00 0.00 0.00 0.00 0.00 0.00 0.00 0.00 0.00 0.00 0.00 0.00 0.00 0.00 0.00 0.00 0.00 0.00 0.00 0.00 0.00 0.00 0.00 0.00 0.00 0.00 0.00 0.00 0.00 0.00 0.00 0.00 0.00 0.00 0.00 0.00 0.00
0.00 0.00 0.00 0.00 0.00 0.00 0.00 0.00 0.00 0.00 0.00 0.00 0.00 0.00 0.00 0.00 0.00 0.00 0.00 0.00 0.00 0.00 0.00 0.00 0.00 0.00 0.00 0.00 0.00 0.00 0.00 0.00 0.00 0.00 0.00 0.00 0.00 0.00 0.00 0.00 0.00 0.00 0.00
0.00 0.00 0.00 0.00 0.00 0.00 0.00 0.00 0.00 0.00 0.00 0.00 0.00 0.00 0.00 0.00 0.00 0.00 0.00 0.00 0.00 0.00 0.00 0.00 0.00 0.00 0.00 0.00 0.00 0.00 0.00 0.00 0.00 0.00 0.00 0.00 0.00 0.00 0.00 0.00 0.00 0.00 0.00
0.00 0.00 0.00 0.00 0.00 0.00 0.00 0.00 0.00 0.00 0.00 0.00 0.00 0.00 0.00 0.00 0.00 0.00 0.00 0.00 0.00 0.00 0.00 0.00 0.00 0.00 0.00 0.00 0.00 0.00 0.00 0.00 0.00 0.00 0.00 0.00 0.00 0.00 0.01 0.01 0.01 0.01 0.02
0.00 0.00 0.00 0.00 0.00 0.00 0.00 0.00 0.00 0.00 0.00 0.00 0.00 0.00 0.00 0.00 0.00 0.00 0.00 0.00 0.00 0.00 0.00 0.00 0.00 0.00 0.00 0.00 0.00 0.00 0.00 0.00 0.00 0.00 0.00 0.00 0.00 0.00 0.01 0.01 0.01 0.02 0.02
0.00 0.00 0.00 0.00 0.00 0.00 0.00 0.00 0.00 0.00 0.00 0.00 0.00 0.00 0.00 0.00 0.00 0.00 0.00 0.00 0.00 0.00 0.00 0.00 0.00 0.00 0.00 0.00 0.00 0.00 0.00 0.00 0.00 0.00 0.00 0.00 0.00 0.00 0.00 0.00 0.01 0.01 0.01
0.00 0.00 0.00 0.00 0.00 0.00 0.00 0.00 0.00 0.00 0.00 0.00 0.00 0.00 0.00 0.00 0.00 0.00 0.00 0.00 0.00 0.00 0.00 0.00 0.00 0.00 0.00 0.00 0.00 0.00 0.00 0.00 0.00 0.00 0.00 0.00 0.00 0.00 0.00 0.00 0.00 0.00 0.00
0.00 0.00 0.00 0.00 0.00 0.00 0.00 0.00 0.00 0.00 0.00 0.00 0.00 0.00 0.00 0.00 0.00 0.00 0.00 0.00 0.00 0.00 0.00 0.00 0.00 0.00 0.00 0.00 0.00 0.00 0.00 0.00 0.00 0.00 0.00 0.00 0.00 0.00 0.01 0.01 0.01 0.01 0.00
0.00 0.00 0.00 0.00 0.00 0.00 0.00 0.00 0.00 0.00 0.00 0.00 0.00 0.00 0.00 0.00 0.00 0.00 0.00 0.00 0.00 0.00 0.00 0.00 0.00 0.00 0.00 0.00 0.00 0.00 0.00 0.00 0.00 0.00 0.00 0.00 0.01 0.01 0.02 0.02 0.02 0.02 0.01
0.00 0.00 0.00 0.00 0.00 0.00 0.00 0.00 0.00 0.00 0.00 0.00 0.00 0.00 0.00 0.00 0.00 0.00 0.00 0.00 0.00 0.00 0.00 0.00 0.00 0.00 0.00 0.00 0.00 0.00 0.00 0.00 0.00 0.01 0.00 0.00 0.01 0.02 0.02 0.03 0.03 0.03 0.03
0.00 0.00 0.00 0.00 0.00 0.00 0.00 0.00 0.00 0.00 0.00 0.00 0.00 0.00 0.00 0.00 0.00 0.00 0.00 0.00 0.00 0.00 0.00 0.00 0.00 0.00 0.00 0.00 0.00 0.00 0.00 0.01 0.01 0.01 0.00 0.00 0.01 0.02 0.03 0.03 0.02 0.03 0.04
0.00 0.00 0.00 0.00 0.00 0.00 0.00 0.00 0.00 0.00 0.00 0.00 0.00 0.00 0.00 0.00 0.00 0.00 0.00 0.00 0.00 0.00 0.00 0.00 0.00 0.00 0.00 0.00 0.00 0.00 0.00 0.01 0.01 0.01 0.01 0.01 0.02 0.02 0.02 0.01 0.02 0.02 0.02
0.00 0.00 0.00 0.00 0.00 0.00 0.00 0.00 0.00 0.00 0.00 0.00 0.00 0.00 0.00 0.00 0.00 0.00 0.00 0.00 0.00 0.00 0.00 0.00 0.00 0.00 0.00 0.00 0.00 0.00 0.00 0.01 0.01 0.01 0.01 0.02 0.02 0.01 0.01 0.01 0.01 0.01 0.01
0.00 0.00 0.00 0.00 0.00 0.00 0.00 0.00 0.00 0.00 0.00 0.00 0.00 0.00 0.00 0.00 0.00 0.00 0.00 0.00 0.00 0.00 0.00 0.00 0.00 0.00 0.00 0.00 0.01 0.01 0.01 0.02 0.02 0.03 0.03 0.02 0.01 0.01 0.01 0.00 0.00 0.01 0.01
0.00 0.00 0.00 0.00 0.00 0.00 0.00 0.00 0.00 0.00 0.00 0.00 0.00 0.00 0.00 0.00 0.00 0.00 0.00 0.00 0.00 0.00 0.00 0.00 0.00 0.00 0.00 0.01 0.01 0.02 0.02 0.02 0.03 0.04 0.04 0.02 0.01 0.01 0.01 0.01 0.01 0.01 0.01
MSLP
1017.43 1017.47 1017.45 1017.39 1017.32 1017.28 1017.31 1017.43 1017.64 1017.95 1018.33 1018.76 1019.21 1019.63 1020.01 1020.31 1020.53 1020.67 1020.74 1020.75 1020.74 1020.73 1020.75 1020.81 1020.92 1021.08 1021.26 1021.45 1021.61 1021.72 1021.77 1021.73 1021.62 1021.46 1021.27 1021.06 1020.86 1020.68 1020.52 1020.38 1020.24 1020.11 1019.96
1017.65 1017.79 1017.85 1017.83 1017.77 1017.71 1017.70 1017.77 1017.95 1018.23 1018.61 1019.04 1019.48 1019.90 1020.26 1020.53 1020.70 1020.78 1020.79 1020.75 1020.70 1020.66 1020.66 1020.72 1020.84 1020.99 1021.17 1021.34 1021.47 1021.56 1021.57 1021.51 1021.38 1021.20 1021.00 1020.78 1020.57 1020.37 1020.19 1020.02 1019.86 1019.70 1019.54
1017.64 1017.92 1018.09 1018.15 1018.13 1018.09 1018.08 1018.14 1018.30 1018.57 1018.94 1019.36 1019.80 1020.21 1020.54 1020.77 1020.89 1020.92 1020.87 1020.78 1020.69 1020.63 1020.62 1020.66 1020.76 1020.90 1021.05 1021.19 1021.29 1021.34 1021.32 1021.25 1021.12 1020.95 1020.75 1020.55 1020.34 1020.13 1019.93 1019.73 1019.53 1019.33 1019.14
1017.40 1017.83 1018.14 1018.31 1018.38 1018.39 1018.41 1018.48 1018.64 1018.91 1019.27 1019.69 1020.11 1020.49 1020.79 1020.98 1021.06 1021.04 1020.95 1020.83 1020.71 1020.62 1020.59 1020.61 1020.68 1020.78 1020.89 1020.99 1021.05 1021.07 1021.03 1020.95 1020.84 1020.69 1020.53 1020.34 1020.15 1019.94 1019.72 1019.48 1019.24 1019.00 1018.76
1017.00 1017.57 1018.02 1018.32 1018.49 1018.58 1018.65 1018.75 1018.93 1019.20 1019.55 1019.95 1020.35 1020.71 1020.97 1021.13 1021.18 1021.12 1021.01 1020.87 1020.73 1020.62 1020.57 1020.56 1020.60 1020.65 1020.71 1020.75 1020.77 1020.76 1020.71 1020.64 1020.55 1020.44 1020.31 1020.16 1019.98 1019.77 1019.53 1019.26 1018.96 1018.66 1018.36
1016.49 1017.19 1017.77 1018.20 1018.48 1018.66 1018.79 1018.93 1019.14 1019.41 1019.75 1020.13 1020.51 1020.83 1021.07 1021.21 1021.23 1021.17 1021.04 1020.89 1020.75 1020.64 1020.56 1020.52 1020.51 1020.52 1020.52 1020.51 1020.48 1020.43 1020.38 1020.32 1020.25 1020.18 1020.09 1019.97 1019.81 1019.60 1019.33 1019.01 1018.66 1018.30 1017.94
1015.97 1016.77 1017.46 1017.99 1018.38 1018.64 1018.84 1019.03 1019.25 1019.53 1019.86 1020.22 1020.58 1020.88 1021.10 1021.22 1021.24 1021.18 1021.06 1020.92 1020.78 1020.67 1020.57 1020.51 1020.45 1020.40 1020.34 1020.28 1020.20 1020.12 1020.06 1020.00 1019.95 1019.90 1019.84 1019.74 1019.59 1019.36 1019.07 1018.71 1018.31 1017.88 1017.47
1015.49 1016.36 1017.12 1017.74 1018.21 1018.55 1018.80 1019.04 1019.28 1019.57 1019.90 1020.25 1020.58 1020.87 1021.08 1021.20 1021.23 1021.18 1021.09 1020.96 1020.84 1020.73 1020.62 1020.53 1020.43 1020.32 1020.21 1020.08 1019.96 1019.84 1019.75 1019.69 1019.64 1019.60 1019.55 1019.45 1019.29 1019.05 1018.72 1018.33 1017.88 1017.41 1016.95
1015.08 1015.98 1016.80 1017.47 1018.00 1018.40 1018.71 1018.99 1019.27 1019.57 1019.91 1020.25 1020.57 1020.85 1021.06 1021.19 1021.23 1021.21 1021.14 1021.04 1020.93 1020.82 1020.70 1020.58 1020.44 1020.28 1020.10 1019.92 1019.74 1019.59 1019.46 1019.37 1019.31 1019.26 1019.19 1019.08 1018.89 1018.63 1018.28 1017.85 1017.37 1016.87 1016.38
1014.74 1015.65 1016.48 1017.19 1017.76 1018.22 1018.58 1018.91 1019.23 1019.56 1019.91 1020.26 1020.59 1020.86 1021.08 1021.21 1021.27 1021.27 1021.21 1021.13 1021.03 1020.91 1020.78 1020.63 1020.44 1020.24 1020.00 1019.77 1019.54 1019.33 1019.16 1019.03 1018.94 1018.86 1018.76 1018.62 1018.41 1018.12 1017.74 1017.29 1016.80 1016.29 1015.79
1014.45 1015.34 1016.17 1016.90 1017.51 1018.01 1018.44 1018.82 1019.19 1019.56 1019.94 1020.31 1020.64 1020.92 1021.14 1021.28 1021.34 1021.34 1021.29 1021.21 1021.11 1020.97 1020.82 1020.63 1020.40 1020.15 1019.87 1019.58 1019.30 1019.04 1018.83 1018.66 1018.52 1018.40 1018.26 1018.08 1017.84 1017.52 1017.13 1016.68 1016.18 1015.68 1015.19
1014.18 1015.05 1015.87 1016.61 1017.25 1017.80 1018.29 1018.74 1019.17 1019.59 1020.00 1020.38 1020.73 1021.01 1021.22 1021.35 1021.40 1021.39 1021.33 1021.24 1021.11 1020.95 1020.76 1020.53 1020.26 1019.96 1019.64 1019.31 1018.99 1018.70 1018.45 1018.23 1018.05 1017.88 1017.70 1017.49 1017.22 1016.88 1016.48 1016.03 1015.55 1015.06 1014.59
1013.92 1014.76 1015.57 1016.32 1017.00 1017.60 1018.15 1018.66 1019.15 1019.62 1020.07 1020.47 1020.82 1021.09 1021.28 1021.39 1021.41 1021.37 1021.28 1021.15 1020.99 1020.79 1020.56 1020.29 1019.99 1019.66 1019.31 1018.95 1018.61 1018.28 1018.00 1017.76 1017.54 1017.33 1017.12 1016.87 1016.58 1016.23 1015.82 1015.38 1014.91 1014.44 1013.99
1013.68 1014.49 1015.29 1016.05 1016.76 1017.41 1018.01 1018.59 1019.13 1019.64 1020.11 1020.52 1020.86 1021.11 1021.27 1021.34 1021.32 1021.24 1021.10 1020.92 1020.72 1020.48 1020.21 1019.91 1019.58 1019.23 1018.86 1018.49 1018.13 1017.80 1017.50 1017.23 1016.99 1016.75 1016.51 1016.24 1015.92 1015.56 1015.15 1014.71 1014.25 1013.80 1013.35
1013.48 1014.27 1015.06 1015.83 1016.56 1017.25 1017.90 1018.52 1019.09 1019.63 1020.10 1020.50 1020.81 1021.02 1021.13 1021.15 1021.08 1020.95 1020.77 1020.55 1020.30 1020.02 1019.72 1019.40 1019.06 1018.69 1018.32 1017.95 1017.59 1017.25 1016.95 1016.67 1016.41 1016.15 1015.88 1015.58 1015.24 1014.87 1014.45 1014.00 1013.54 1013.09 1012.64
1013.35 1014.13 1014.91 1015.68 1016.42 1017.12 1017.80 1018.44 1019.02 1019.55 1020.00 1020.37 1020.64 1020.80 1020.85 1020.82 1020.70 1020.52 1020.29 1020.04 1019.76 1019.46 1019.14 1018.80 1018.45 1018.09 1017.72 1017.35 1017.00 1016.67 1016.36 1016.07 1015.80 1015.52 1015.22 1014.89 1014.53 1014.13 1013.69 1013.22 1012.75 1012.28 1011.81
1013.33 1014.09 1014.86 1015.61 1016.35 1017.05 1017.72 1018.35 1018.91 1019.41 1019.82 1020.13 1020.33 1020.43 1020.43 1020.34 1020.18 1019.97 1019.72 1019.44 1019.14 1018.83 1018.50 1018.16 1017.81 1017.45 1017.09 1016.73 1016.39 1016.05 1015.74 1015.44 1015.14 1014.83 1014.50 1014.14 1013.74 1013.30 1012.83 1012.34 1011.84 1011.34 1010.85
1013.44 1014.17 1014.91 1015.64 1016.35 1017.03 1017.67 1018.25 1018.77 1019.20 1019.54 1019.78 1019.92 1019.95 1019.90 1019.76 1019.57 1019.34 1019.08 1018.79 1018.49 1018.18 1017.86 1017.52 1017.17 1016.82 1016.46 1016.10 1015.75 1015.41 1015.08 1014.75 1014.42 1014.08 1013.71 1013.30 1012.86 1012.38 1011.87 1011.34 1010.80 1010.27 1009.76
1013.66 1014.36 1015.06 1015.75 1016.42 1017.05 1017.63 1018.15 1018.59 1018.94 1019.20 1019.36 1019.42 1019.40 1019.29 1019.13 1018.92 1018.68 1018.42 1018.14 1017.85 1017.55 1017.23 1016.89 1016.54 1016.18 1015.82 1015.45 1015.08 1014.72 1014.37 1014.01 1013.64 1013.25 1012.83 1012.37 1011.88 1011.35 1010.80 1010.24 1009.68 1009.12 1008.59
1013.96 1014.62 1015.28 1015.92 1016.52 1017.09 1017.60 1018.03 1018.39 1018.65 1018.82 1018.90 1018.89 1018.81 1018.67 1018.48 1018.26 1018.02 1017.76 1017.50 1017.21 1016.92 1016.60 1016.26 1015.90 1015.52 1015.14 1014.75 1014.36 1013.98 1013.59 1013.19 1012.78 1012.34 1011.88 1011.37 1010.84 1010.28 1009.69 1009.11 1008.53 1007.97 1007.43
1014.29 1014.91 1015.52 1016.09 1016.63 1017.12 1017.55 1017.90 1018.17 1018.34 1018.43 1018.43 1018.36 1018.23 1018.05 1017.85 1017.62 1017.37 1017.12 1016.86 1016.57 1016.27 1015.94 1015.58 1015.21 1014.81 1014.40 1013.99 1013.58 1013.16 1012.75 1012.32 1011.87 1011.40 1010.90 1010.36 1009.80 1009.21 1008.61 1008.02 1007.44 1006.89 1006.38
1014.63 1015.19 1015.73 1016.25 1016.72 1017.13 1017.48 1017.75 1017.93 1018.02 1018.03 1017.97 1017.84 1017.67 1017.46 1017.23 1016.99 1016.74 1016.47 1016.19 1015.89 1015.57 1015.21 1014.83 1014.43 1014.00 1013.57 1013.14 1012.71 1012.28 1011.85 1011.40 1010.94 1010.45 1009.94 1009.39 1008.82 1008.23 1007.64 1007.06 1006.50 1005.98 1005.50
1014.91 1015.42 1015.90 1016.35 1016.75 1017.09 1017.36 1017.56 1017.66 1017.69 1017.63 1017.51 1017.34 1017.13 1016.89 1016.63 1016.37 1016.09 1015.80 1015.49 1015.15 1014.79 1014.40 1013.98 1013.54 1013.10 1012.65 1012.21 1011.77 1011.35 1010.92 1010.49 1010.04 1009.56 1009.06 1008.52 1007.97 1007.40 1006.83 1006.28 1005.76 1005.28 1004.84
1015.13 1015.58 1016.00 1016.38 1016.71 1016.99 1017.19 1017.32 1017.36 1017.33 1017.22 1017.06 1016.84 1016.60 1016.32 1016.04 1015.74 1015.42 1015.08 1014.73 1014.34 1013.93 1013.49 1013.03 1012.56 1012.10 1011.65 1011.21 1010.80 1010.40 1010.01 1009.62 1009.20 1008.77 1008.30 1007.80 1007.28 1006.75 1006.22 1005.71 1005.23 1004.79 1004.39
1015.28 1015.67 1016.02 1016.34 1016.61 1016.81 1016.96 1017.02 1017.01 1016.93 1016.78 1016.58 1016.33 1016.06 1015.75 1015.43 1015.08 1014.72 1014.33 1013.91 1013.47 1013.00 1012.51 1012.01 1011.52 1011.05 1010.61 1010.20 1009.83 1009.48 1009.14 1008.81 1008.46 1008.08 1007.67 1007.22 1006.75 1006.26 1005.77 1005.31 1004.87 1004.47 1004.10
1015.38 1015.70 1015.99 1016.23 1016.43 1016.58 1016.66 1016.67 1016.61 1016.48 1016.30 1016.07 1015.79 1015.48 1015.15 1014.79 1014.40 1013.99 1013.55 1013.07 1012.57 1012.04 1011.51 1010.98 1010.48 1010.01 1009.58 1009.21 1008.88 1008.60 1008.33 1008.07 1007.79 1007.48 1007.13 1006.74 1006.32 1005.88 1005.43 1005.00 1004.59 1004.21 1003.86
Thickness
5680 5680 5680 5679 5678 5676 5674 5670 5666 5662 5657 5651 5645 5640 5635 5631 5627 5624 5621 5618 5614 5611 5608 5605 5601 5598 5595 5592 5589 5587 5584 5581 5579 5577 5578 5580 5580 5580 5580 5579 5577 5576 5575
5673 5672 5671 5670 5669 5667 5665 5662 5659 5655 5651 5646 5640 5635 5629 5624 5621 5617 5614 5611 5608 5605 5602 5598 5595 5592 5588 5585 5582 5579 5575 5573 5570 5566 5566 5568 5570 5570 5572 5570 5568 5567 5566
5667 5665 5663 5661 5659 5658 5656 5655 5651 5647 5643 5639 5633 5627 5621 5616 5612 5609 5606 5603 5601 5597 5594 5591 5588 5584 5581 5577 5574 5571 5567 5564 5561 5556 5553 5553 5557 5557 5563 5562 5560 5557 5555
5662 5659 5656 5654 5651 5650 5648 5646 5643 5639 5635 5631 5626 5620 5613 5608 5604 5600 5597 5595 5592 5589 5586 5583 5579 5576 5572 5569 5565 5563 5559 5555 5551 5548 5544 5542 5542 5541 5549 5551 5549 5547 5545
5657 5654 5650 5648 5645 5642 5639 5637 5634 5630 5626 5622 5618 5612 5605 5600 5596 5592 5589 5586 5583 5580 5577 5574 5570 5567 5563 5560 5557 5553 5550 5546 5542 5539 5535 5532 5529 5526 5526 5536 5537 5535 5534
5652 5648 5644 5640 5636 5633 5630 5628 5625 5620 5617 5613 5608 5603 5598 5592 5588 5583 5579 5576 5573 5571 5568 5565 5561 5557 5554 5550 5548 5544 5540 5537 5533 5530 5526 5522 5519 5516 5513 5516 5521 5523 5524
5647 5643 5637 5634 5629 5625 5622 5619 5616 5612 5607 5603 5599 5594 5589 5584 5580 5575 5571 5567 5563 5560 5558 5555 5551 5548 5544 5541 5538 5535 5531 5528 5524 5520 5517 5514 5511 5507 5504 5503 5507 5508 5510
5643 5640 5635 5630 5625 5620 5616 5612 5608 5603 5599 5594 5590 5585 5581 5576 5571 5567 5563 5558 5554 5551 5548 5545 5541 5538 5534 5531 5528 5525 5521 5518 5514 5511 5507 5504 5501 5496 5492 5488 5487 5492 5496
5639 5636 5630 5625 5620 5615 5610 5605 5600 5595 5590 5586 5581 5576 5571 5567 5562 5558 5554 5549 5545 5541 5538 5534 5531 5528 5524 5521 5518 5514 5510 5507 5503 5500 5496 5492 5489 5485 5481 5476 5470 5467 5474
5634 5630 5626 5621 5615 5610 5604 5598 5593 5588 5582 5577 5572 5567 5562 5557 5553 5548 5543 5539 5535 5531 5528 5524 5521 5517 5514 5511 5507 5503 5500 5496 5493 5489 5485 5481 5477 5473 5468 5463 5458 5452 5450
5633 5628 5622 5616 5609 5603 5596 5591 5585 5579 5573 5568 5563 5557 5552 5548 5542 5537 5533 5529 5525 5521 5517 5514 5510 5507 5503 5500 5496 5493 5489 5485 5482 5478 5473 5470 5465 5460 5455 5450 5444 5439 5434
5629 5623 5616 5608 5602 5595 5589 5583 5577 5571 5565 5559 5553 5547 5542 5537 5532 5527 5523 5519 5515 5511 5507 5503 5500 5496 5493 5489 5485 5482 5479 5474 5470 5466 5461 5457 5453 5448 5442 5436 5431 5425 5420
5621 5614 5608 5603 5597 5590 5583 5576 5569 5563 5556 5550 5543 5537 5532 5527 5522 5517 5513 5509 5505 5501 5497 5493 5489 5485 5482 5478 5474 5471 5467 5463 5458 5454 5449 5444 5439 5434 5428 5422 5417 5411 5407
5616 5610 5603 5597 5590 5583 5576 5569 5561 5554 5547 5541 5534 5528 5522 5517 5512 5507 5502 5498 5494 5490 5486 5482 5478 5474 5471 5467 5463 5459 5455 5451 5447 5441 5436 5431 5425 5419 5414 5408 5403 5397 5392
5609 5605 5598 5590 5582 5574 5567 5560 5552 5545 5538 5531 5524 5518 5513 5507 5502 5497 5492 5488 5483 5480 5475 5471 5467 5463 5459 5455 5452 5449 5445 5440 5436 5430 5424 5418 5412 5407 5401 5396 5390 5383 5378
5605 5599 5591 5582 5574 5567 5559 5551 5543 5536 5529 5521 5515 5509 5503 5497 5492 5487 5482 5478 5473 5469 5464 5460 5456 5452 5449 5446 5443 5439 5435 5429 5423 5418 5412 5406 5399 5393 5388 5382 5377 5370 5364
5599 5592 5584 5577 5568 5560 5552 5542 5534 5526 5518 5511 5505 5499 5493 5487 5482 5477 5472 5467 5463 5459 5454 5450 5445 5441 5438 5435 5432 5428 5424 5418 5411 5404 5398 5393 5386 5379 5372 5367 5363 5357 5351
5590 5582 5574 5565 5557 5549 5540 5532 5523 5515 5507 5500 5494 5488 5483 5477 5472 5467 5462 5457 5453 5448 5444 5440 5436 5431 5428 5424 5421 5416 5412 5405 5398 5390 5383 5377 5372 5364 5358 5354 5351 5346 5340
5580 5572 5564 5554 5545 5537 5529 5520 5511 5503 5496 5490 5484 5479 5473 5468 5462 5457 5453 5448 5444 5439 5435 5430 5426 5421 5417 5412 5408 5403 5398 5392 5386 5378 5370 5363 5358 5353 5348 5344 5340 5337 5333
5566 5557 5549 5541 5533 5525 5517 5508 5500 5492 5486 5481 5476 5470 5464 5458 5453 5449 5444 5439 5434 5430 5426 5421 5415 5410 5405 5400 5395 5389 5384 5379 5374 5368 5360 5352 5346 5342 5337 5331 5328 5326 5324
5551 5544 5536 5529 5521 5513 5505 5497 5489 5483 5478 5473 5467 5461 5455 5450 5445 5440 5434 5429 5424 5420 5415 5411 5406 5399 5393 5388 5381 5375 5368 5363 5360 5355 5349 5341 5335 5331 5326 5322 5318 5316 5316
5536 5530 5523 5515 5507 5501 5494 5486 5479 5475 5469 5463 5457 5451 5446 5440 5436 5429 5424 5418 5412 5407 5402 5398 5395 5388 5380 5374 5368 5362 5356 5350 5345 5342 5336 5330 5326 5322 5318 5314 5311 5310 5308
5523 5516 5509 5501 5494 5488 5482 5475 5470 5464 5458 5452 5446 5441 5436 5430 5424 5417 5412 5406 5400 5394 5390 5384 5381 5378 5370 5361 5355 5349 5343 5337 5331 5328 5325 5321 5317 5313 5309 5305 5303 5301 5297
5509 5503 5496 5489 5482 5476 5471 5465 5459 5453 5447 5441 5436 5430 5424 5419 5413 5407 5400 5394 5387 5380 5375 5370 5366 5363 5358 5350 5342 5336 5330 5325 5319 5315 5312 5310 5306 5302 5299 5297 5293 5289 5287
5496 5490 5483 5477 5471 5465 5459 5454 5448 5442 5435 5430 5424 5419 5413 5407 5402 5396 5389 5383 5376 5366 5361 5357 5351 5347 5345 5340 5332 5326 5321 5315 5309 5307 5304 5299 5294 5291 5289 5286 5284 5282 5280
5483 5476 5470 5465 5459 5453 5448 5442 5437 5431 5424 5418 5413 5407 5401 5395 5389 5384 5380 5375 5366 5360 5352 5344 5337 5334 5329 5326 5321 5314 5309 5304 5300 5296 5292 5288 5284 5281 5280 5279 5277 5275 5274